SCP
0 0 0 0 0 0 0 0 0 0 0 0 0 0 0 0 0 0 0 0 0 0 0 0 0 0 0 0 0 0 0 0 0 0 0 0 0 0 0 0 0 0 0 0
0 0 0 0 0 0 0 0 0 0 0 0 0 0 0 0 0 0 0 0 0 0 0 0 0 0 0 0 0 0 0 0 0 0 0 0 0 0 0 0 0 0 0 0
0 0 0 0 0 0 0 0 0 0 0 0 0 0 0 0 0 0 0 0 0 0 0 0 0 0 0 0 0 0 0 0 0 0 0 0 0 0 0 0 0 0 0 0
0 0 0 0 0 0 0 0 0 0 0 0 0 0 0 0 0 0 0 0 0 0 0 0 0 0 0 0 0 0 0 0 0 0 0 0 0 0 0 0 0 0 0 0
0 0 0 0 0 0 0 0 0 0 0 0 0 0 0 0 0 0 0 0 0 0 0 0 0 0 0 0 0 0 0 1 1 1 0 0 0 0 0 0 0 0 0 0
0 0 0 0 0 0 0 0 0 0 0 0 0 0 0 0 0 0 0 0 0 0 0 0 0 0 0 0 0 0 0 1 1 1 1 0 0 0 0 0 0 0 0 0
0 0 0 0 0 0 0 0 0 0 0 0 0 0 0 0 0 0 0 0 0 0 0 0 0 0 0 0 1 1 1 1 1 1 0 0 0 0 0 0 0 0 0 0
0 0 0 0 0 0 0 0 0 0 0 0 0 0 0 0 0 0 0 0 0 0 0 0 0 0 0 0 1 1 1 1 1 1 1 1 0 0 0 0 0 0 0 0
0 0 0 0 0 0 0 0 0 0 0 0 0 0 0 0 0 0 0 0 0 0 0 0 0 0 0 0 0 0 1 1 1 1 1 1 1 0 0 0 0 0 0 0
0 0 0 0 0 0 0 0 0 0 0 0 0 0 0 0 0 0 0 0 0 0 0 0 0 0 0 0 0 0 0 0 0 0 0 1 1 1 1 1 0 0 0 0
0 0 0 0 0 0 0 0 0 0 0 0 0 0 0 0 0 0 0 0 0 0 0 0 0 0 0 0 0 0 0 0 0 0 0 1 1 1 1 1 1 0 0 0
0 0 0 0 0 0 0 0 0 0 0 0 0 0 0 0 0 0 0 0 0 0 0 0 0 0 0 0 0 0 0 0 0 1 1 1 1 1 1 1 1 0 0 0
0 0 0 0 0 0 0 0 0 0 0 0 0 0 0 0 0 0 0 0 0 0 1 1 1 1 1 0 0 0 0 0 1 1 1 1 1 1 1 1 1 1 0 0
0 0 0 0 0 0 0 0 0 0 0 0 0 0 0 0 0 0 0 0 0 0 1 1 1 1 1 1 1 1 1 0 1 1 1 1 1 1 1 1 1 0 0 0
0 0 0 0 0 0 0 0 0 0 0 0 0 0 0 0 0 0 0 0 0 1 1 1 1 1 1 1 1 1 1 1 1 1 1 1 1 1 1 1 1 0 0 0
0 0 0 0 0 0 0 0 0 0 0 0 0 0 0 0 0 0 0 0 0 1 1 1 1 1 1 1 1 1 1 1 1 1 1 0 0 1 1 1 0 0 0 0
0 0 0 0 0 0 0 0 0 0 0 0 0 0 0 0 0 0 0 0 0 1 1 1 1 1 1 1 1 1 1 1 1 1 1 0 0 0 0 0 0 0 0 0
0 0 0 0 0 0 0 0 0 0 0 0 0 0 0 0 0 0 0 0 0 0 1 1 1 1 1 1 1 1 1 1 1 1 1 1 1 0 0 0 0 0 0 0
0 0 0 0 0 0 0 0 0 0 0 0 0 0 0 0 0 0 0 0 0 1 1 1 1 1 1 1 1 1 1 1 1 1 1 1 1 0 0 0 0 0 0 0
0 0 0 0 0 0 0 0 0 0 0 0 0 0 0 0 0 0 1 1 1 1 1 1 1 1 1 1 1 1 1 1 1 1 1 0 0 0 0 0 0 1 0 0
0 0 0 0 0 0 0 0 0 0 0 0 0 0 0 0 1 1 1 1 1 1 1 1 1 1 1 1 1 1 1 1 1 1 0 0 0 0 0 0 0 1 0 0
0 0 0 0 0 0 0 0 0 0 0 0 0 0 1 1 1 1 1 1 1 1 1 1 1 1 1 1 1 1 1 1 1 1 1 1 0 0 0 0 0 0 0 0
0 0 0 0 0 0 0 0 0 0 0 0 0 0 1 1 1 1 1 1 1 1 1 1 1 1 1 1 1 1 1 1 1 1 1 1 1 1 1 1 1 0 0 0
0 0 0 0 0 0 0 0 0 0 0 0 0 0 0 0 1 1 1 1 1 1 1 1 1 1 1 1 1 1 1 1 1 1 1 1 1 1 1 1 1 0 0 0
0 0 0 0 0 0 0 0 0 0 0 0 0 0 0 0 0 0 1 1 1 1 1 1 1 1 1 1 1 1 1 1 1 1 1 1 1 1 1 1 1 0 0 0
0 0 0 0 0 0 0 0 0 0 0 0 0 0 0 0 0 0 1 1 1 1 1 1 1 1 1 1 1 1 1 1 1 1 1 1 1 1 1 1 0 0 0 0
Wind_Speed
7 9 7 5 5 4 3 3 2 1 1 3 3 2 4 6 7 7 7 7 8 7 8 9 9 8 8 7 6 6 5 4 3 2 2 2 2 1 1 2 2 1 1 2
8 9 6 4 5 5 5 4 2 1 1 3 3 3 4 6 6 6 6 7 7 7 8 8 9 9 9 8 7 7 6 5 4 3 2 1 1 1 1 1 2 2 2 2
10 4 4 6 6 7 6 5 3 2 2 4 4 5 6 6 6 6 6 7 7 7 7 8 9 10 9 9 9 7 6 6 5 4 3 3 2 2 2 2 2 2 2 2
9 5 6 8 7 7 5 3 4 4 5 3 4 3 4 6 7 7 7 7 7 7 7 7 8 9 10 9 9 8 7 6 5 5 4 4 3 2 2 1 2 2 3 3
7 7 8 8 7 7 3 2 4 6 6 6 5 6 2 5 5 6 7 7 7 7 8 8 8 8 9 10 9 9 8 7 6 6 5 5 4 2 2 2 2 2 2 3
6 6 7 7 5 5 4 4 5 8 8 7 5 6 2 3 3 3 5 7 7 7 8 7 7 7 7 9 9 9 9 8 7 6 6 5 4 3 2 3 2 3 2 2
9 9 6 5 7 7 8 7 6 6 6 4 2 6 2 2 1 2 3 5 7 7 7 8 8 8 7 8 9 9 9 8 8 7 7 6 5 5 4 4 3 2 2 2
11 10 9 7 8 7 10 10 7 6 5 4 5 6 2 2 1 2 3 3 5 7 7 8 8 8 8 8 9 9 9 8 8 8 7 6 5 4 4 4 3 2 2 1
8 7 7 6 6 8 9 10 8 9 8 8 5 5 4 4 4 3 3 3 4 6 8 9 9 9 8 8 9 9 9 8 8 7 7 5 5 4 3 3 3 2 1 2
5 7 6 7 7 7 8 8 7 8 7 8 6 7 4 5 4 3 3 3 3 5 7 8 9 9 8 8 8 9 9 8 8 7 6 5 5 5 4 3 2 2 2 2
8 8 7 9 10 9 8 10 9 8 8 8 7 3 3 2 2 2 2 2 4 5 7 8 8 8 8 8 8 7 8 8 7 7 6 5 5 5 4 3 3 3 3 3
7 8 7 8 5 6 10 10 10 9 7 8 9 3 5 2 2 2 1 2 3 4 5 7 7 8 7 7 7 7 6 7 7 7 6 5 5 4 5 4 3 3 3 3
5 8 8 9 9 9 10 10 11 10 8 8 10 4 5 4 2 2 2 2 2 3 4 5 6 6 7 7 7 7 6 6 6 6 6 5 5 4 4 3 3 2 3 3
6 9 10 10 6 6 9 10 11 12 9 10 11 8 5 5 4 3 3 2 3 3 3 5 5 6 6 6 6 6 6 6 6 6 6 5 4 4 4 3 3 3 2 2
7 9 9 9 7 8 9 10 11 13 12 11 9 9 6 4 4 3 3 3 3 3 3 4 5 5 5 6 6 6 6 6 6 5 5 5 4 4 4 3 3 3 3 3
5 7 8 10 9 9 10 11 12 12 12 12 11 9 3 2 3 4 4 4 4 3 4 4 5 5 6 6 6 6 6 6 6 5 5 4 4 4 4 3 3 3 3 2
5 6 8 10 8 9 12 10 11 11 10 11 11 7 3 5 5 5 4 4 4 3 4 4 4 5 5 5 5 6 6 6 6 6 5 4 4 4 4 3 3 3 3 3
6 7 7 8 7 13 4 1 6 8 9 8 7 5 4 4 3 3 3 3 3 3 3 3 4 4 5 5 5 5 5 6 6 5 5 5 4 4 4 3 3 3 3 3
7 7 7 8 10 10 5 2 3 6 7 4 5 4 3 2 4 4 2 2 2 2 2 2 3 4 4 4 5 5 5 5 5 5 5 4 4 4 4 4 3 3 3 3
6 7 9 9 11 10 1 2 2 6 7 1 3 3 3 4 6 2 2 1 0 0 1 2 3 3 4 4 5 5 5 5 4 4 4 4 4 4 4 3 3 3 3 3
8 8 10 10 10 6 3 1 4 8 1 2 2 2 4 4 3 3 2 2 2 1 2 3 3 2 3 4 4 5 5 5 4 4 4 4 4 4 3 3 3 3 3 2
7 7 8 8 10 5 3 2 3 3 4 2 2 2 3 2 2 1 1 1 1 1 1 2 2 2 2 4 5 5 5 4 4 4 4 4 4 3 3 3 3 3 3 3
6 4 4 4 3 3 0 1 1 3 3 3 3 3 3 1 0 1 1 1 1 1 1 1 2 2 2 3 4 4 4 4 4 5 4 4 4 3 3 3 3 4 3 3
4 4 5 5 3 2 1 1 1 2 2 2 2 2 2 2 1 1 1 1 1 1 1 1 1 1 1 2 3 3 3 4 4 5 4 4 4 4 3 3 3 3 2 3
4 5 6 7 4 3 3 2 2 1 1 0 0 1 2 2 1 1 1 1 1 1 1 0 0 1 1 2 2 2 3 4 4 4 4 4 4 3 3 2 1 2 1 2
6 6 7 5 3 4 2 1 2 2 1 1 1 1 1 1 1 1 1 1 1 1 1 1 1 1 1 2 2 1 2 3 4 4 4 4 3 3 3 3 2 2 1 1
Wind_Direction
195 217 219 219 239 281 284 274 293 22 87 248 239 213 167 175 191 187 186 187 188 187 177 174 176 177 175 177 178 177 176 170 178 172 174 172 164 170 144 140 124 150 161 161
202 220 223 231 226 238 242 254 260 186 145 257 248 232 183 180 197 193 189 192 193 184 178 178 181 183 184 182 186 184 184 181 184 171 172 173 148 165 138 114 133 157 160 178
224 208 189 213 215 228 229 254 274 282 242 223 244 225 191 179 195 198 204 201 199 193 185 182 186 190 188 187 188 187 185 185 186 179 173 160 164 180 155 158 159 162 174 175
226 208 202 219 221 238 234 243 263 255 255 237 250 264 176 180 190 200 200 198 200 195 192 187 188 191 193 190 185 185 185 186 183 184 185 184 185 179 179 196 156 172 183 185
203 203 212 226 231 242 257 219 244 259 261 264 238 260 173 170 205 209 201 198 200 198 193 189 191 190 192 189 185 181 181 185 185 190 188 200 198 188 184 188 164 194 176 191
222 204 226 238 230 226 209 211 223 239 248 251 252 258 237 171 218 212 195 196 197 198 191 185 183 183 186 184 183 179 177 182 184 192 193 199 195 197 198 202 192 198 185 191
209 203 198 214 209 199 219 229 232 227 230 238 231 254 247 96 195 237 203 193 190 190 188 181 177 178 180 181 180 178 178 182 185 192 195 195 198 199 206 222 203 222 210 190
213 207 194 203 227 220 222 239 255 264 261 242 205 241 172 126 158 208 208 195 182 181 183 179 175 177 178 179 180 180 181 184 185 189 194 197 204 210 206 214 234 215 235 223
227 217 180 202 227 238 221 233 259 268 271 268 235 222 197 199 205 197 192 181 174 181 182 179 174 173 174 177 178 181 180 183 185 187 187 191 198 212 214 205 222 227 233 230
248 236 198 189 209 221 250 235 230 245 257 259 246 237 222 189 203 199 194 187 176 176 180 180 177 174 173 173 174 178 179 181 183 186 192 182 192 198 208 221 215 232 232 239
241 236 207 203 218 221 214 222 240 248 254 266 266 244 124 186 195 214 201 188 180 177 177 178 177 174 175 172 170 175 179 180 183 188 189 187 187 190 194 204 212 214 223 218
230 242 233 227 219 252 237 233 234 243 245 256 270 257 114 160 179 191 181 162 164 175 171 171 172 170 176 175 173 175 179 182 184 184 187 188 184 184 186 191 202 207 214 219
211 239 230 221 205 207 227 230 236 246 246 250 258 244 138 163 192 192 191 168 160 171 171 169 168 170 173 173 174 172 176 179 180 181 185 184 184 184 192 191 191 200 210 212
244 238 248 249 252 225 223 224 228 238 244 248 253 264 211 202 214 216 211 198 183 166 171 175 172 172 172 172 172 171 172 171 176 183 184 181 187 190 190 186 185 192 208 216
241 241 245 261 269 252 239 233 229 235 247 258 263 264 258 230 229 225 221 212 202 180 180 179 177 171 170 170 173 174 172 169 172 179 182 182 183 183 185 181 180 183 201 209
239 249 244 244 241 241 243 238 234 237 246 253 257 259 268 234 225 213 211 209 213 212 203 186 177 172 173 173 175 175 175 173 173 177 177 170 175 179 179 178 183 188 199 214
226 233 241 243 230 237 238 236 236 236 239 247 252 260 239 225 220 222 220 218 221 221 205 195 186 180 178 176 172 176 175 174 175 175 175 174 179 178 179 187 186 191 195 200
234 241 242 245 227 237 237 246 249 250 251 254 263 265 254 250 232 230 233 237 235 233 217 197 187 179 174 169 167 172 166 171 174 174 177 177 181 182 179 184 189 196 199 202
228 233 245 243 238 243 223 216 246 248 248 253 263 258 244 220 218 205 196 232 245 239 224 198 184 173 164 161 162 168 164 164 172 177 179 174 179 186 186 187 192 196 201 210
203 226 242 241 248 248 222 95 268 248 234 197 266 247 228 214 233 169 105 102 87 67 135 150 155 154 155 160 164 170 167 170 182 179 173 167 174 186 192 193 200 196 205 216
201 212 232 240 245 250 57 69 222 233 298 37 289 262 245 244 313 40 61 61 77 115 138 147 149 158 155 156 164 173 173 175 178 173 169 167 176 187 184 184 191 202 211 212
229 223 225 234 240 230 84 198 239 343 356 322 303 288 288 319 26 76 70 58 70 92 119 138 138 135 148 164 175 182 184 178 170 172 174 175 181 195 174 182 191 205 215 215
238 262 262 257 280 30 307 273 311 308 295 296 290 287 278 287 343 27 53 53 52 80 107 120 126 128 151 174 179 189 185 174 171 172 178 184 187 196 195 199 203 208 212 229
207 249 247 245 230 233 254 289 291 295 282 276 273 272 271 265 286 315 329 13 29 23 70 130 139 135 151 177 184 181 173 169 175 183 187 194 197 199 196 217 222 230 228 234
254 231 239 240 242 235 227 280 302 284 285 270 240 260 268 261 276 303 315 322 318 315 322 309 214 170 184 193 193 183 170 175 184 196 200 206 206 201 197 198 263 265 309 328
237 244 253 263 251 258 251 265 280 267 272 295 289 273 271 273 280 281 281 282 280 277 271 243 229 227 212 203 195 183 180 191 198 201 203 209 208 197 199 186 168 68 359 65